Location: Unspecified
(0.0000°N, 0.0000°E)
Time: 12:23:10
(UTC+00:00)

ARIANE 5 DEB (SYLDA) - Visible Passes

Search period start: 25 January 2026 00:00
Search period end: 04 February 2026 00:00
Orbit: 162 x 6390 km, 3.9° (Epoch: 20 January)

Date Brightness Start Highest point End Pass type
(mag) Time Alt. Az. Time Alt. Az. Time Alt. Az.
25 Jan ? 02:26:36 45° ESE 02:26:36 45° ESE 02:40:12 10° E visible
25 Jan ? 04:57:52 16° W 05:09:47 83° S 05:46:20 10° E visible
25 Jan ? 19:29:16 10° W 19:33:47 84° NW 19:33:47 84° NW visible
26 Jan ? 03:31:51 68° SW 03:33:22 76° S 03:57:31 10° E visible
27 Jan ? 01:52:13 21° E 01:52:13 21° E 01:56:49 10° E visible
27 Jan ? 04:20:17 35° WSW 04:26:17 80° S 04:54:39 10° E visible
28 Jan ? 02:24:50 33° ESE 02:24:50 33° ESE 02:33:31 10° E visible
28 Jan ? 04:51:05 21° W 04:59:52 83° S 05:29:45 10° E visible
28 Jan ? 18:45:44 10° W 18:53:48 89° NNW 18:56:38 13° E visible
29 Jan ? 02:38:56 38° ESE 02:38:56 38° ESE 02:48:33 10° E visible
29 Jan ? 05:03:18 17° W 05:12:44 85° S 05:41:51 10° E visible
29 Jan ? 18:45:43 10° W 18:54:14 87° S 18:57:14 13° E visible
30 Jan ? 02:33:33 31° E 02:33:33 31° E 02:40:47 10° E visible
30 Jan ? 04:55:54 21° W 05:03:46 85° S 05:30:02 10° E visible
31 Jan ? 02:07:33 15° E 02:07:33 15° E 02:09:34 10° E visible
31 Jan ? 04:27:46 37° WSW 04:32:07 83° S 04:53:29 10° E visible
31 Jan ? 20:11:43 10° W 20:14:56 30° WSW 20:14:56 30° WSW visible
1 Feb ? 03:37:35 75° SE 03:37:35 75° SE 03:51:54 10° E visible
1 Feb ? 18:56:23 10° W 19:05:28 77° S 19:08:25 17° E visible
2 Feb ? 02:23:56 15° E 02:23:56 15° E 02:25:40 10° E visible
2 Feb ? 04:39:13 34° W 04:43:26 86° S 05:01:54 10° E visible
2 Feb ? 19:43:34 10° W 19:50:25 64° S 19:50:44 61° SSE visible
3 Feb ? 02:57:50 27° E 02:57:50 27° E 03:02:39 10° E visible
3 Feb ? 05:10:14 18° W 05:16:38 90° N 05:35:34 10° E visible
3 Feb ? 19:54:21 10° W 20:00:49 59° SSW 20:00:49 59° SSW visible
